period_start,C,m1,H,J0,J1,J2,J3,J4,J5,JA,JB,JC,JD,JJ,JK,JN,#
2018-09-03 00:04:19,-0.00,16.30,0.00,22.74,26.54,29.60,14.13,60.01,1010.76,2023.97,747.99,1067.99,1154.98,600.11,593.21,54.16,0000 0000 0000 0000 000000
2018-09-03 00:09:20,0.00,16.30,0.00,22.73,26.52,29.58,14.13,60.02,1010.76,2023.98,747.99,1067.99,1154.99,600.02,593.12,54.21,0000 0000 0000 0000 000000
2018-09-03 00:14:21,0.00,16.30,0.00,22.72,26.51,29.58,14.02,60.04,1010.76,2023.98,747.99,1067.99,1154.99,599.56,592.72,54.26,0000 0000 0000 0000 000000
2018-09-03 00:19:22,-0.00,16.30,0.00,22.70,26.50,29.54,14.09,59.98,1010.76,2023.99,747.99,1067.99,1154.99,599.94,593.14,54.31,0000 0000 0000 0000 000000
2018-09-03 00:24:23,-0.00,16.30,0.00,22.68,26.49,29.55,14.10,60.15,1010.76,2023.99,747.99,1067.99,1154.99,600.05,593.47,54.36,0000 0000 0000 0000 000000
2018-09-03 00:29:24,0.00,16.30,0.00,22.67,26.47,29.57,14.07,60.03,1010.76,2023.99,747.99,1067.99,1154.99,599.75,593.03,54.41,0000 0000 0000 0000 000000
2018-09-03 00:34:26,0.00,16.30,0.00,22.64,26.46,29.54,14.12,60.12,1010.77,2023.99,747.99,1067.99,1154.99,600.07,593.29,54.46,0000 0000 0000 0000 000000
2018-09-03 00:39:27,-0.00,16.30,0.00,22.62,26.45,29.47,14.07,60.04,1010.77,2023.99,747.99,1067.99,1154.99,600.16,593.52,54.51,0000 0000 0000 0000 000000
2018-09-03 00:44:28,-0.00,16.30,0.00,22.62,26.43,29.50,14.08,60.04,1010.78,2023.99,747.99,1067.99,1154.99,600.03,593.35,54.56,0000 0000 0000 0000 000000
2018-09-03 00:49:29,0.00,16.30,0.00,22.61,26.42,29.47,14.12,60.10,1010.81,2023.99,747.99,1067.99,1154.99,600.08,593.49,54.61,0000 0000 0000 0000 000000
2018-09-03 00:54:31,0.00,16.30,0.00,22.59,26.40,29.47,14.13,60.07,1011.04,2024.00,747.99,1067.99,1154.99,600.19,593.71,54.66,0000 0000 0000 0000 000000
2018-09-03 00:59:32,-0.00,16.30,0.00,22.59,26.39,29.44,14.07,59.88,1011.19,2024.01,747.99,1067.99,1154.99,600.25,593.92,54.71,0000 0000 0000 0000 000000
2018-09-03 01:04:34,0.01,16.30,0.00,22.59,26.37,29.39,14.17,60.00,1011.24,2024.07,747.99,1068.00,1155.00,600.25,593.94,54.77,0000 0000 0000 0000 000000
2018-09-03 01:09:35,-0.00,16.30,0.00,22.59,26.36,29.38,14.14,60.00,1011.24,2024.06,747.99,1068.00,1155.00,600.28,594.00,54.82,0000 0000 0000 0000 000000
2018-09-03 01:14:37,0.00,16.30,0.00,22.59,26.35,29.36,14.10,60.01,1011.24,2024.06,747.99,1068.01,1155.00,600.03,593.70,54.87,0000 0000 0000 0000 000000
2018-09-03 01:19:38,0.05,16.30,0.00,22.59,26.34,29.35,14.05,60.00,1011.24,2024.23,747.99,1068.02,1155.00,599.42,593.09,54.92,0000 0000 0000 0000 000000
2018-09-03 01:24:39,0.01,16.30,0.00,22.59,26.32,29.37,14.01,59.98,1011.24,2024.32,747.99,1068.02,1155.01,599.63,593.43,54.97,0000 0000 0000 0000 000000
2018-09-03 01:29:40,0.04,16.30,0.00,22.59,26.32,29.37,14.06,60.02,1011.24,2024.71,747.99,1068.04,1155.01,600.03,593.83,55.02,0000 0000 0000 0000 000000
2018-09-03 01:34:41,0.04,16.31,0.00,22.58,26.30,29.31,14.10,59.77,1011.24,2024.91,748.00,1068.07,1155.02,599.86,593.66,55.07,0000 0000 0000 0000 000000
2018-09-03 01:39:42,-0.00,16.31,0.00,22.57,26.30,29.33,14.06,60.07,1011.10,2024.96,748.00,1068.08,1155.04,599.92,593.57,55.12,0000 0000 0000 0000 000000
2018-09-03 01:44:43,-0.01,16.31,0.00,22.57,26.29,29.32,14.11,59.77,1010.89,2024.96,748.00,1068.12,1155.06,600.37,593.90,55.17,0000 0000 0000 0000 000000
2018-09-03 01:49:44,-0.00,16.31,0.00,22.57,26.27,29.32,14.11,60.01,1011.02,2024.98,748.01,1068.16,1155.06,600.14,593.74,55.22,0000 0000 0000 0000 000000
2018-09-03 01:54:45,-0.00,16.31,0.00,22.57,26.27,29.28,14.08,59.90,1011.22,2024.98,748.01,1068.23,1155.08,599.90,593.60,55.27,0000 0000 0000 0000 000000
2018-09-03 01:59:47,0.00,16.31,0.00,22.57,26.27,29.29,14.08,60.00,1011.24,2024.98,748.00,1068.19,1155.12,599.83,593.62,55.32,0000 0000 0000 0000 000000
2018-09-03 02:04:48,-0.02,16.31,0.00,22.56,26.26,29.27,14.03,59.92,1011.24,2024.99,748.01,1068.26,1155.15,599.60,593.39,55.37,0000 0000 0000 0000 000000
2018-09-03 02:09:49,-0.02,16.30,0.00,22.56,26.25,29.27,14.13,59.92,1011.24,2024.99,748.03,1068.41,1155.20,600.09,593.78,55.42,0000 0000 0000 0000 000000
2018-09-03 02:14:50,0.01,16.30,0.00,22.56,26.25,29.23,14.09,59.87,1011.24,2024.99,748.01,1068.43,1155.21,600.03,593.81,55.47,0000 0000 0000 0000 000000
2018-09-03 02:19:51,-0.03,16.30,0.00,22.57,26.25,29.26,14.02,59.90,1011.25,2024.99,748.05,1068.54,1155.32,599.82,593.57,55.52,0000 0000 0000 0000 000000
2018-09-03 02:24:53,-0.00,16.30,0.00,22.57,26.24,29.27,14.08,59.95,1011.25,2024.99,748.05,1068.60,1155.29,599.84,593.52,55.57,0000 0000 0000 0000 000000
2018-09-03 02:29:54,0.01,16.30,0.00,22.57,26.22,29.24,14.11,59.89,1011.25,2024.99,748.06,1068.67,1155.24,599.96,593.80,55.62,0000 0000 0000 0000 000000
2018-09-03 02:34:55,-0.03,16.30,0.00,22.57,26.22,29.26,14.02,59.90,1011.25,2024.99,748.04,1068.71,1155.31,599.91,593.72,55.67,0000 0000 0000 0000 000000
2018-09-03 02:39:57,-0.02,16.30,0.00,22.57,26.22,29.23,14.06,59.86,1011.23,2024.99,748.04,1068.79,1155.56,599.97,593.73,55.73,0000 0000 0000 0000 000000
2018-09-03 02:44:58,0.03,16.30,0.00,22.57,26.22,29.23,14.08,60.02,1011.18,2024.99,748.02,1068.75,1155.57,600.03,593.71,55.78,0000 0000 0000 0000 000000
2018-09-03 02:49:59,-0.03,16.30,0.00,22.57,26.22,29.19,14.09,60.01,1011.20,2024.99,748.04,1068.85,1155.61,599.87,593.64,55.83,0000 0000 0000 0000 000000
2018-09-03 02:55:00,-0.01,16.30,0.00,22.57,26.22,29.20,14.13,59.98,1011.23,2024.99,748.04,1068.87,1155.67,600.26,593.98,55.88,0000 0000 0000 0000 000000
2018-09-03 03:00:02,0.02,16.30,0.00,22.57,26.21,29.19,14.06,60.04,1011.19,2024.99,748.01,1068.85,1155.47,600.35,594.06,55.93,0000 0000 0000 0000 000000
2018-09-03 03:05:03,-0.03,16.30,0.00,22.58,26.20,29.16,14.06,59.81,1011.22,2024.99,748.01,1068.91,1155.68,600.01,593.78,55.98,0000 0000 0000 0000 000000
2018-09-03 03:10:04,-0.01,16.30,0.00,22.58,26.20,29.23,14.11,59.92,1011.24,2024.99,748.02,1068.93,1155.79,600.25,593.97,56.03,0000 0000 0000 0000 000000
2018-09-03 03:15:06,0.00,16.30,0.00,22.58,26.20,29.21,14.15,59.98,1011.23,2024.99,748.00,1068.93,1155.78,600.29,593.95,56.08,0000 0000 0000 0000 000000
2018-09-03 03:20:07,0.00,16.30,0.00,22.58,26.20,29.20,14.03,59.95,1011.23,2024.99,748.00,1068.95,1155.76,599.65,593.32,56.13,0000 0000 0000 0000 000000
2018-09-03 03:25:08,0.01,16.30,0.00,22.59,26.20,29.22,14.07,59.96,1011.24,2024.99,748.00,1068.95,1155.79,599.97,593.70,56.18,0000 0000 0000 0000 000000
2018-09-03 03:30:09,-0.01,16.30,0.00,22.58,26.20,29.19,14.08,59.88,1011.24,2024.99,748.00,1068.97,1155.73,600.07,593.77,56.23,0000 0000 0000 0000 000000
2018-09-03 03:35:11,0.01,16.30,0.00,22.59,26.20,29.19,14.07,60.03,1011.24,2025.00,748.00,1068.95,1155.79,599.77,593.47,56.28,0000 0000 0000 0000 000000
2018-09-03 03:40:12,0.00,16.30,0.00,22.59,26.20,29.21,14.15,59.95,1011.24,2025.00,748.00,1068.92,1155.69,600.11,593.82,56.33,0000 0000 0000 0000 000000
2018-09-03 03:45:13,-0.01,16.30,0.00,22.59,26.20,29.20,14.04,59.85,1011.24,2025.00,748.00,1068.95,1155.79,599.72,593.44,56.38,0000 0000 0000 0000 000000
2018-09-03 03:50:14,-0.00,16.30,0.00,22.58,26.20,29.18,14.12,59.91,1011.24,2025.00,748.00,1068.96,1155.83,600.30,593.92,56.43,0000 0000 0000 0000 000000
2018-09-03 03:55:16,0.00,16.30,0.00,22.58,26.20,29.21,14.12,59.90,1011.24,2025.00,748.00,1068.97,1155.80,600.19,593.77,56.48,0000 0000 0000 0000 000000
2018-09-03 04:00:17,-0.01,16.30,0.00,22.59,26.20,29.19,14.12,60.01,1011.24,2025.00,747.99,1068.98,1155.92,599.89,593.47,56.53,0000 0000 0000 0000 000000
2018-09-03 04:05:18,-0.01,16.30,0.00,22.59,26.20,29.17,14.02,59.96,1011.22,2025.00,747.99,1068.98,1155.95,599.69,593.37,56.58,0000 0000 0000 0000 000000
2018-09-03 04:10:19,0.01,16.30,0.00,22.59,26.20,29.18,14.03,59.99,1011.20,2025.01,747.99,1068.98,1155.94,599.86,593.71,56.63,0000 0000 0000 0000 000000
2018-09-03 04:15:20,0.01,16.30,0.00,22.60,26.20,29.19,14.09,60.09,1010.96,2025.02,747.99,1068.90,1155.86,600.03,593.61,56.69,0000 0000 0000 0000 000000
2018-09-03 04:20:22,0.18,16.31,0.00,22.61,26.20,29.18,14.03,60.01,1011.01,2025.01,747.96,1068.08,1155.05,599.88,593.42,56.74,0000 0000 0000 0000 000000
2018-09-03 04:25:23,0.02,16.31,0.00,22.60,26.20,29.19,14.09,59.95,1010.82,2025.00,747.86,1068.02,1155.00,600.14,593.48,56.79,0000 0000 0000 0000 000000
2018-09-03 04:30:25,0.01,16.31,0.00,22.60,26.20,29.20,14.03,60.08,1010.79,2025.00,747.83,1068.03,1155.00,599.66,593.15,56.84,0000 0000 0000 0000 000000
2018-09-03 04:35:26,0.06,16.31,0.00,22.59,26.20,29.20,14.06,60.18,1010.77,2025.00,747.56,1068.01,1155.00,599.83,593.27,56.89,0000 0000 0000 0000 000000
2018-09-03 04:40:27,0.01,16.31,0.00,22.57,26.20,29.24,14.07,60.09,1010.77,2025.00,747.44,1068.02,1155.00,599.99,593.47,56.94,0000 0000 0000 0000 000000
2018-09-03 04:45:28,0.05,16.31,0.00,22.54,26.20,29.25,14.07,59.98,1010.78,2025.00,747.17,1068.02,1155.00,599.86,593.53,56.99,0000 0000 0000 0000 000000
2018-09-03 04:50:29,0.03,16.32,0.00,22.54,26.19,29.23,14.18,60.17,1010.77,2025.01,747.05,1068.02,1155.00,600.13,593.54,57.04,0000 0000 0000 0000 000000
2018-09-03 04:55:30,0.00,16.32,0.00,22.54,26.18,29.21,14.13,60.13,1010.77,2025.01,747.05,1068.02,1155.00,600.32,593.84,57.09,0000 0000 0000 0000 000000
2018-09-03 05:00:31,-0.01,16.32,0.00,22.54,26.17,29.20,14.07,60.25,1010.77,2025.01,747.07,1068.03,1155.00,599.79,593.26,57.14,0000 0000 0000 0000 000000
2018-09-03 05:05:33,0.01,16.32,0.00,22.53,26.17,29.20,14.10,60.18,1010.77,2025.01,747.04,1068.03,1155.00,600.11,593.64,57.19,0000 0000 0000 0000 000000
2018-09-03 05:10:34,0.00,16.32,0.00,22.52,26.17,29.18,14.14,60.31,1010.76,2025.01,747.02,1068.03,1155.00,600.01,593.57,57.24,0000 0000 0000 0000 000000
2018-09-03 05:15:35,-0.00,16.32,0.00,22.52,26.17,29.19,14.03,60.27,1010.76,2025.01,747.01,1068.05,1155.00,599.83,593.50,57.29,0000 0000 0000 0000 000000
2018-09-03 05:20:37,0.01,16.32,0.00,22.52,26.17,29.19,14.10,60.18,1010.77,2025.02,747.00,1068.04,1155.00,600.40,593.89,57.34,0000 0000 0000 0000 000000
2018-09-03 05:25:38,0.00,16.32,0.00,22.52,26.15,29.19,14.05,60.27,1010.76,2025.03,747.00,1068.04,1155.00,599.67,593.28,57.39,0000 0000 0000 0000 000000
2018-09-03 05:30:39,-0.00,16.32,0.00,22.51,26.15,29.18,14.10,60.19,1010.78,2025.02,747.00,1068.06,1155.00,600.47,593.98,57.44,0000 0000 0000 0000 000000
2018-09-03 05:35:40,0.00,16.32,0.00,22.52,26.15,29.16,14.06,60.20,1010.78,2025.03,747.00,1068.07,1155.00,599.73,593.21,57.49,0000 0000 0000 0000 000000
2018-09-03 05:40:41,0.00,16.32,0.00,22.52,26.15,29.15,14.14,60.02,1010.96,2025.05,747.00,1068.08,1155.00,600.48,594.14,57.54,0000 0000 0000 0000 000000
2018-09-03 05:45:43,-0.00,16.32,0.00,22.52,26.15,29.13,14.08,60.21,1011.20,2025.08,747.00,1068.08,1155.01,599.89,593.70,57.59,0000 0000 0000 0000 000000
2018-09-03 05:50:44,0.02,16.32,0.00,22.52,26.15,29.14,14.06,60.18,1011.24,2025.18,747.00,1068.09,1155.01,599.51,593.43,57.65,0000 0000 0000 0000 000000
2018-09-03 05:55:45,-0.00,16.32,0.00,22.52,26.15,29.09,14.15,60.27,1011.24,2025.19,746.98,1068.09,1155.02,600.23,594.10,57.70,0000 0000 0000 0000 000000
2018-09-03 06:00:47,0.01,16.32,0.00,22.52,26.15,29.12,14.10,60.24,1011.27,2025.30,746.98,1068.11,1155.05,600.00,594.06,57.75,0000 0000 0000 0000 000000
2018-09-03 06:05:48,0.03,16.32,0.00,22.52,26.15,29.13,14.11,60.19,1011.26,2025.42,746.98,1068.15,1155.06,600.25,594.04,57.80,0000 0000 0000 0000 000000
2018-09-03 06:10:50,-0.03,16.32,0.00,22.52,26.14,29.15,14.07,60.12,1011.25,2025.30,746.98,1068.15,1155.05,599.49,593.57,57.85,0000 0000 0000 0000 000000
2018-09-03 06:15:51,0.01,16.32,0.00,22.53,26.14,29.15,14.12,60.02,1011.25,2025.27,746.96,1068.12,1155.04,599.83,593.72,57.90,0000 0000 0000 0000 000000
2018-09-03 06:20:52,-0.02,16.32,0.00,22.53,26.13,29.12,14.10,60.03,1011.25,2025.34,746.98,1068.13,1155.04,600.24,594.06,57.95,0000 0000 0000 0000 000000
2018-09-03 06:25:53,0.00,16.32,0.00,22.53,26.13,29.17,14.04,59.99,1011.25,2025.38,746.98,1068.18,1155.04,599.72,593.55,58.00,0000 0000 0000 0000 000000
2018-09-03 06:30:54,0.02,16.32,0.00,22.53,26.12,29.15,14.08,60.00,1011.26,2025.31,746.98,1068.11,1155.04,599.94,593.79,58.05,0000 0000 0000 0000 000000
2018-09-03 06:35:56,0.02,16.32,0.00,22.54,26.12,29.15,14.09,60.04,1011.28,2025.60,746.97,1068.31,1155.07,599.62,593.42,58.10,0000 0000 0000 0000 000000
2018-09-03 06:40:57,0.02,16.32,0.00,22.53,26.12,29.14,14.16,60.02,1011.27,2025.70,746.98,1068.29,1155.07,600.14,594.05,58.15,0000 0000 0000 0000 000000
2018-09-03 06:45:58,-0.01,16.32,0.00,22.54,26.12,29.12,14.06,59.90,1011.28,2025.72,746.98,1068.33,1155.06,599.63,593.45,58.20,0000 0000 0000 0000 000000
2018-09-03 06:51:00,0.01,16.32,0.00,22.54,26.12,29.13,14.12,59.89,1011.30,2025.73,746.95,1068.32,1155.06,600.29,594.15,58.25,0000 0000 0000 0000 000000
2018-09-03 06:56:01,-0.02,16.32,0.00,22.54,26.12,29.10,14.08,59.97,1011.26,2025.66,746.95,1068.35,1155.06,599.92,593.64,58.30,0000 0000 0000 0000 000000
2018-09-03 07:01:02,-0.03,16.32,0.00,22.55,26.12,29.14,14.10,59.88,1011.26,2025.70,746.96,1068.48,1155.05,600.00,593.76,58.35,0000 0000 0000 0000 000000
2018-09-03 07:06:04,0.02,16.32,0.00,22.55,26.12,29.11,14.06,59.88,1011.43,2025.69,746.95,1068.46,1155.04,599.78,593.55,58.40,0000 0000 0000 0000 000000
2018-09-03 07:11:05,-0.02,16.32,0.00,22.57,26.12,29.13,14.12,59.95,1011.45,2025.53,746.93,1068.36,1155.03,599.92,593.76,58.45,0000 0000 0000 0000 000000
2018-09-03 07:16:07,0.00,16.32,0.00,22.55,26.13,29.14,14.12,59.88,1011.41,2025.58,746.93,1068.38,1155.03,599.74,593.66,58.50,0000 0000 0000 0000 000000
2018-09-03 07:21:08,-0.04,16.32,0.00,22.57,26.13,29.09,14.13,59.98,1011.66,2025.38,746.95,1068.43,1155.02,600.17,594.12,58.55,0000 0000 0000 0000 000000
2018-09-03 07:26:09,-0.01,16.32,0.00,22.57,26.14,29.10,14.09,59.93,1011.72,2025.19,746.93,1068.33,1155.03,600.00,593.92,58.61,0000 0000 0000 0000 000000
2018-09-03 07:31:10,-0.02,16.32,0.00,22.59,26.15,29.12,14.15,59.94,1011.72,2025.25,746.96,1068.50,1155.02,600.22,594.31,58.66,0000 0000 0000 0000 000000
2018-09-03 07:36:11,-0.02,16.32,0.00,22.60,26.15,29.11,14.11,59.84,1011.71,2025.21,746.98,1068.50,1155.01,599.99,593.96,58.71,0000 0000 0000 0000 000000
2018-09-03 07:41:12,-0.02,16.31,0.00,22.63,26.15,29.12,14.05,59.83,1011.72,2025.08,746.98,1068.51,1155.00,599.82,593.73,58.76,0000 0000 0000 0000 000000
2018-09-03 07:46:14,0.00,16.31,0.00,22.65,26.15,29.05,14.11,59.89,1011.73,2025.07,746.96,1068.49,1155.03,600.02,593.89,58.81,0000 0000 0000 0000 000000
2018-09-03 07:51:15,0.01,16.31,0.00,22.67,26.17,29.05,14.11,59.78,1011.72,2025.03,746.95,1068.44,1155.00,600.02,593.72,58.86,0000 0000 0000 0000 000000
2018-09-03 07:56:16,-0.02,16.31,0.00,22.71,26.17,29.00,14.08,59.84,1011.70,2025.03,746.95,1068.54,1155.00,599.92,593.63,58.91,0000 0000 0000 0000 000000
2018-09-03 08:01:17,0.02,16.31,0.00,22.77,26.18,28.92,14.02,59.80,1011.73,2025.03,746.95,1068.54,1155.00,600.22,593.85,58.96,0000 0000 0000 0000 000000
2018-09-03 08:06:18,0.02,16.31,0.00,22.80,26.20,28.86,14.04,59.77,1011.58,2025.01,746.90,1068.35,1155.00,599.72,593.33,59.01,0000 0000 0000 0000 000000
2018-09-03 08:11:20,0.17,16.32,0.00,22.84,26.21,28.84,14.04,59.70,1011.29,2025.00,746.35,1068.03,1155.00,600.05,593.36,59.06,0000 0000 0000 0000 000000
2018-09-03 08:16:21,0.01,16.33,0.00,22.86,26.22,28.85,14.03,59.59,1011.34,2025.00,746.09,1068.02,1154.99,600.22,593.40,59.11,0000 0000 0000 0000 000000
2018-09-03 08:21:22,0.01,16.33,0.00,22.86,26.24,28.91,14.09,59.83,1011.59,2025.00,746.05,1068.01,1154.99,600.11,593.51,59.16,0000 0000 0000 0000 000000
2018-09-03 08:26:23,-0.01,16.33,0.00,22.87,26.25,28.94,14.06,59.71,1011.64,2025.00,746.05,1068.01,1154.97,600.08,593.36,59.21,0000 0000 0000 0000 000000
2018-09-03 08:31:25,0.01,16.33,0.00,22.86,26.27,28.96,14.02,59.67,1011.68,2024.99,746.02,1068.00,1154.98,599.77,593.19,59.26,0000 0000 0000 0000 000000
2018-09-03 08:36:26,-0.01,16.33,0.00,22.86,26.29,29.00,14.10,59.71,1011.71,2024.97,746.02,1068.00,1154.98,600.29,593.65,59.31,0000 0000 0000 0000 000000
2018-09-03 08:41:28,0.00,16.33,0.00,22.84,26.30,29.02,14.07,59.73,1011.71,2024.96,746.01,1068.00,1154.98,600.25,593.66,59.36,0000 0000 0000 0000 000000
2018-09-03 08:46:29,0.01,16.33,0.00,22.84,26.32,29.06,14.07,59.73,1011.72,2024.97,746.00,1068.00,1154.98,600.07,593.52,59.41,0000 0000 0000 0000 000000
2018-09-03 08:51:30,-0.00,16.33,0.00,22.84,26.32,29.12,14.01,59.69,1011.73,2024.97,746.00,1068.00,1154.98,599.88,593.42,59.46,0000 0000 0000 0000 000000
2018-09-03 08:56:31,0.00,16.33,0.00,22.83,26.34,29.16,14.13,59.66,1011.73,2024.97,746.00,1068.00,1154.97,600.16,593.66,59.52,0000 0000 0000 0000 000000
2018-09-03 09:01:32,0.00,8.16,0.00,22.81,26.36,29.26,12.14,46.66,1011.73,2028.40,2068.37,2085.75,2365.25,529.09,525.78,0.02,0006 0000 0000 0000 000002
2018-09-03 09:06:33,0.00,0.00,0.00,22.80,26.37,29.34,14.00,47.70,1011.73,2031.30,3385.64,3101.45,3573.51,600.19,593.89,0.03,0000 0000 0000 0000 000000
2018-09-03 09:11:35,0.00,0.00,0.00,22.79,26.37,29.31,13.95,47.63,1011.73,2031.14,3384.18,3101.01,3572.36,600.21,593.85,0.09,0000 0000 0000 0000 000000
2018-09-03 09:16:36,0.00,0.00,0.00,22.78,26.39,29.31,13.92,47.87,1011.73,2031.20,3383.43,3101.00,3571.90,600.26,593.87,0.14,0000 0000 0000 0000 000000
2018-09-03 09:21:37,0.01,0.00,0.00,22.77,26.40,29.34,13.89,47.63,1011.75,2031.29,3383.00,3100.99,3571.10,599.95,593.52,0.19,0000 0000 0000 0000 000000
2018-09-03 09:26:38,0.00,0.00,0.00,22.75,26.40,29.35,13.94,47.77,1011.75,2031.23,3382.51,3100.93,3570.99,599.91,593.57,0.24,0000 0000 0000 0000 000000
2018-09-03 09:31:39,0.01,0.00,0.00,22.74,26.40,29.40,13.94,47.72,1011.81,2031.22,3382.02,3100.59,3570.54,600.20,593.76,0.29,0000 0000 0000 0000 000000
2018-09-03 09:36:41,0.00,0.00,0.00,22.72,26.40,29.36,13.95,47.66,1012.08,2031.11,3381.98,3100.12,3570.02,600.08,594.02,0.34,0000 0000 0000 0000 000000
2018-09-03 09:41:42,0.01,0.00,0.00,22.72,26.40,29.40,13.90,47.63,1012.16,2031.11,3381.56,3100.02,3569.99,599.77,593.68,0.39,0000 0000 0000 0000 000000
2018-09-03 09:46:43,0.00,0.00,0.00,22.72,26.40,29.43,13.92,47.64,1012.19,2031.10,3381.08,3100.00,3569.79,599.92,593.88,0.44,0000 0000 0000 0000 000000
2018-09-03 09:51:45,0.01,0.00,0.00,22.72,26.40,29.42,13.91,47.68,1012.21,2031.07,3381.01,3100.00,3569.17,599.96,593.96,0.49,0000 0000 0000 0000 000000
2018-09-03 09:56:46,-0.00,0.00,0.00,22.70,26.40,29.43,13.85,47.52,1012.17,2031.08,3381.00,3100.00,3569.02,600.01,593.99,0.54,0000 0000 0000 0000 000000
2018-09-03 10:01:47,0.00,0.00,0.00,22.69,26.40,29.43,13.87,47.63,1012.13,2031.09,3381.00,3100.00,3569.00,599.85,593.77,0.59,0000 0000 0000 0000 000000
2018-09-03 10:06:49,-0.00,0.00,0.00,22.68,26.40,29.42,13.89,47.53,1012.04,2031.10,3381.00,3100.00,3569.00,600.08,593.98,0.64,0000 0000 0000 0000 000000
2018-09-03 10:11:50,0.01,0.00,0.00,22.67,26.40,29.42,13.94,47.62,1012.17,2031.14,3380.99,3100.00,3568.99,599.94,594.11,0.69,0000 0000 0000 0000 000000
2018-09-03 10:16:52,0.01,0.00,0.00,22.67,26.40,29.40,13.95,47.68,1012.21,2031.15,3380.98,3100.00,3568.96,600.44,594.55,0.74,0000 0000 0000 0000 000000
2018-09-03 10:21:53,-0.00,0.00,0.00,22.65,26.39,29.41,13.95,47.67,1012.22,2031.22,3380.97,3100.00,3568.97,599.85,593.95,0.79,0000 0000 0000 0000 000000
2018-09-03 10:26:54,0.02,0.01,0.00,22.64,26.37,29.41,13.90,47.57,1012.22,2031.36,3380.87,3100.00,3568.84,599.87,594.04,0.84,0000 0000 0000 0000 000000
2018-09-03 10:31:55,0.01,0.01,0.00,22.63,26.37,29.40,13.89,47.62,1012.22,2031.50,3380.78,3100.00,3568.62,600.29,594.52,0.89,0000 0000 0000 0000 000000
2018-09-03 10:36:57,0.00,0.01,0.00,22.61,26.37,29.39,13.98,47.63,1012.22,2031.38,3380.16,3100.00,3568.08,600.22,594.50,0.94,0000 0000 0000 0000 000000
2018-09-03 10:41:58,0.02,0.01,0.00,22.59,26.37,29.40,13.92,47.67,1012.22,2031.55,3380.11,3100.00,3568.06,600.37,594.59,0.99,0000 0000 0000 0000 000000
2018-09-03 10:46:59,0.02,0.01,0.00,22.59,26.35,29.39,13.92,47.58,1012.22,2031.74,3380.26,3100.00,3568.03,599.89,594.09,1.04,0000 0000 0000 0000 000000
2018-09-03 10:52:00,-0.02,0.01,0.00,22.58,26.35,29.37,14.02,47.60,1012.22,2031.61,3380.04,3100.00,3568.01,600.63,594.63,1.09,0000 0000 0000 0000 000000
2018-09-03 10:57:02,0.01,0.01,0.00,22.57,26.35,29.38,13.96,47.59,1012.22,2031.76,3380.03,3100.00,3568.00,600.07,594.37,1.14,0000 0000 0000 0000 000000
2018-09-03 11:02:02,0.00,0.01,0.00,22.57,26.35,29.37,13.91,47.70,1012.24,2031.73,3380.02,3100.00,3568.00,599.54,593.95,1.19,0000 0000 0000 0000 000000
2018-09-03 11:07:03,0.00,0.01,0.00,22.54,26.33,29.39,13.96,47.73,1012.26,2031.82,3380.02,3100.00,3568.00,600.07,594.42,1.24,0000 0000 0000 0000 000000
2018-09-03 11:12:04,0.01,0.01,0.00,22.53,26.32,29.34,13.97,47.68,1012.24,2031.92,3380.01,3100.00,3568.00,600.19,594.68,1.29,0000 0000 0000 0000 000000
2018-09-03 11:17:05,-0.01,0.01,0.00,22.52,26.32,29.36,13.90,47.71,1012.22,2031.91,3380.02,3100.00,3568.00,599.85,594.23,1.34,0000 0000 0000 0000 000000
2018-09-03 11:22:07,0.01,0.01,0.00,22.51,26.31,29.36,13.87,47.82,1012.22,2031.93,3380.00,3100.00,3568.00,599.52,594.01,1.39,0000 0000 0000 0000 000000
2018-09-03 11:27:08,0.00,0.01,0.00,22.49,26.30,29.34,13.82,47.57,1012.22,2031.95,3380.02,3100.01,3568.00,599.89,594.36,1.44,0000 0000 0000 0000 000000
2018-09-03 11:32:09,-0.00,0.01,0.00,22.48,26.30,29.32,13.98,47.55,1012.23,2031.97,3380.01,3100.01,3568.00,600.09,594.62,1.49,0000 0000 0000 0000 000000
2018-09-03 11:37:10,0.00,0.01,0.00,22.47,26.29,29.33,13.93,47.70,1012.35,2031.98,3380.03,3100.01,3568.00,600.11,594.75,1.54,0000 0000 0000 0000 000000
2018-09-03 11:42:12,-0.00,0.01,0.00,22.45,26.27,29.35,13.95,47.68,1012.36,2031.97,3380.03,3100.02,3567.99,600.23,594.92,1.59,0000 0000 0000 0000 000000
2018-09-03 11:47:13,0.00,0.01,0.00,22.43,26.27,29.30,13.97,47.63,1012.27,2031.96,3380.04,3100.03,3567.99,600.15,594.72,1.64,0000 0000 0000 0000 000000
2018-09-03 11:52:14,0.00,0.01,0.00,22.42,26.27,29.28,13.90,47.73,1012.24,2031.97,3380.05,3100.04,3567.99,600.21,594.94,1.69,0000 0000 0000 0000 000000
2018-09-03 11:57:16,-0.01,0.01,0.00,22.42,26.25,29.27,13.93,47.63,1012.28,2031.98,3380.27,3100.24,3567.99,600.22,594.87,1.74,0000 0000 0000 0000 000000
2018-09-03 12:02:17,0.05,0.01,0.00,22.39,26.25,29.27,13.96,47.70,1012.26,2031.98,3380.15,3099.75,3567.46,600.41,595.06,1.79,0000 0000 0000 0000 000000
2018-09-03 12:07:18,0.02,0.01,0.00,22.38,26.24,29.27,13.86,47.79,1012.23,2031.97,3379.96,3098.68,3566.04,599.66,594.39,1.84,0000 0000 0000 0000 000000
2018-09-03 12:12:19,-0.00,0.01,0.00,22.37,26.22,29.25,13.98,47.65,1012.22,2031.96,3379.96,3098.71,3566.00,600.40,595.16,1.89,0000 0000 0000 0000 000000
2018-09-03 12:17:21,-0.00,0.01,0.00,22.35,26.22,29.27,13.94,47.81,1012.22,2031.97,3379.99,3098.95,3566.00,599.81,594.68,1.94,0000 0000 0000 0000 000000
2018-09-03 12:22:22,0.00,0.01,0.00,22.34,26.20,29.27,13.94,47.67,1012.22,2031.97,3379.97,3098.96,3566.00,600.33,595.06,1.99,0000 0000 0000 0000 000000
2018-09-03 12:27:23,0.00,0.01,0.00,22.32,26.20,29.26,13.94,47.83,1012.22,2031.97,3379.97,3098.96,3566.00,599.47,594.38,2.04,0000 0000 0000 0000 000000
2018-09-03 12:32:24,0.00,0.01,0.00,22.30,26.18,29.23,13.92,47.66,1012.23,2031.99,3379.99,3098.99,3566.03,600.08,594.98,2.09,0000 0000 0000 0000 000000
2018-09-03 12:37:25,0.00,0.01,0.00,22.29,26.17,29.23,13.92,47.67,1012.32,2031.99,3379.99,3098.99,3566.02,599.85,594.81,2.14,0000 0000 0000 0000 000000
2018-09-03 12:42:27,0.00,0.01,0.00,22.27,26.16,29.19,13.99,47.73,1012.46,2031.99,3379.99,3098.99,3566.05,599.91,595.01,2.19,0000 0000 0000 0000 000000
2018-09-03 12:47:28,0.00,0.01,0.00,22.24,26.15,29.20,13.93,47.58,1012.50,2031.99,3379.99,3098.99,3566.05,599.91,595.05,2.24,0000 0000 0000 0000 000000
2018-09-03 12:52:29,0.00,0.01,0.00,22.22,26.13,29.18,14.00,47.75,1012.51,2031.99,3379.99,3099.01,3566.08,600.50,595.78,2.29,0000 0000 0000 0000 000000
2018-09-03 12:57:30,-0.00,0.01,0.00,22.20,26.12,29.20,13.92,47.64,1012.61,2031.99,3379.99,3099.03,3566.23,599.92,594.97,2.34,0000 0000 0000 0000 000000